Orbital Elements at Epoch 2459200.5 (2020-Dec-17.0) TDB
Reference: JPL 25 (heliocentric ecliptic J2000)
Element | Value | Uncertainty (1-sigma) | Units |
e | .1985331373006506 | 4.0813e-08 | |
a | 2.386633061171489 | 1.0058e-08 | au |
q | 1.912807311951658 | 9.7819e-08 | au |
i | 3.459770951710131 | 4.5712e-06 | deg |
node | 155.8395565439411 | 6.9748e-05 | deg |
peri | 191.5248318432907 | 7.0474e-05 | deg |
M | .2691484992877272 | 1.2464e-05 | deg |
tp | 2459199.493146306821 (2020-Dec-15.99314631) | 4.6622e-05 | TDB |
period | 1346.718746356742 3.69 | 8.5132e-06 2.331e-08 | d yr |
n | .2673163947363936 | 1.6898e-09 | deg/d |
Q | 2.860458810391321 | 1.2055e-08 | au |
|
| | Orbit Determination Parameters
Additional Information
|